period_start,C,m1,H,J0,J1,J2,J3,J4,J5,JA,JB,JC,JD,JJ,JK,JN,#
2018-03-17 00:02:45,0.14,1.05,0.00,15.06,18.50,21.92,14.33,47.28,1021.97,2060.98,3105.43,2843.26,3260.55,599.88,615.60,9.00,0000 0000 0000 0000 000000
2018-03-17 00:07:46,0.14,1.06,0.00,15.08,18.50,21.95,14.40,47.40,1021.98,2060.98,3102.50,2841.38,3258.30,599.40,614.99,9.05,0000 0000 0000 0000 000000
2018-03-17 00:12:47,0.15,1.06,0.00,15.08,18.51,21.93,14.38,47.22,1021.99,2060.99,3099.63,2839.43,3256.02,599.74,615.33,9.10,0000 0000 0000 0000 000000
2018-03-17 00:17:48,0.16,1.07,0.00,15.10,18.52,21.87,14.42,47.27,1021.99,2060.99,3096.44,2837.31,3253.53,600.07,615.68,9.15,0000 0000 0000 0000 000000
2018-03-17 00:22:50,0.17,1.08,0.00,15.10,18.52,21.92,14.45,47.33,1021.99,2060.98,3093.09,2835.14,3250.96,599.66,615.26,9.20,0000 0000 0000 0000 000000
2018-03-17 00:27:51,0.15,1.09,0.00,15.12,18.52,21.93,14.50,47.44,1022.01,2060.96,3089.96,2833.04,3248.53,600.00,615.51,9.25,0000 0000 0000 0000 000000
2018-03-17 00:32:52,0.15,1.10,0.00,15.13,18.54,21.90,14.40,47.26,1022.01,2060.98,3086.86,2831.00,3246.22,600.38,615.92,9.30,0000 0000 0000 0000 000000
2018-03-17 00:37:53,0.15,1.10,0.00,15.13,18.54,21.89,14.40,47.32,1022.02,2060.97,3084.05,2829.06,3243.77,599.88,615.42,9.35,0000 0000 0000 0000 000000
2018-03-17 00:42:54,0.15,1.11,0.00,15.14,18.55,21.98,14.40,47.34,1022.02,2060.95,3080.88,2827.00,3241.47,599.95,615.64,9.40,0000 0000 0000 0000 000000
2018-03-17 00:47:56,0.14,1.12,0.00,15.15,18.57,21.88,14.40,47.38,1022.02,2060.75,3077.77,2824.92,3238.96,599.88,615.36,9.45,0000 0000 0000 0000 000000
2018-03-17 00:52:57,0.15,1.13,0.00,15.17,18.57,21.91,14.47,47.41,1022.02,2060.63,3074.72,2822.88,3236.62,600.44,615.87,9.50,0000 0000 0000 0000 000000
2018-03-17 00:57:58,0.13,1.13,0.00,15.17,18.58,21.93,14.39,47.43,1022.05,2060.44,3071.67,2820.90,3234.33,599.78,615.37,9.55,0000 0000 0000 0000 000000
2018-03-17 01:03:00,0.12,1.14,0.00,15.19,18.59,21.93,14.43,47.35,1022.10,2060.31,3069.02,2819.01,3232.15,599.90,615.37,9.60,0000 0000 0000 0000 000000
2018-03-17 01:08:01,0.12,1.15,0.00,15.20,18.60,21.90,14.37,47.34,1022.10,2060.15,3066.33,2817.15,3229.89,599.88,615.27,9.65,0000 0000 0000 0000 000000
2018-03-17 01:13:02,0.13,1.15,0.00,15.22,18.62,21.96,14.42,47.35,1022.11,2060.04,3063.46,2815.36,3227.61,599.77,615.18,9.70,0000 0000 0000 0000 000000
2018-03-17 01:18:04,0.12,1.16,0.00,15.23,18.63,21.93,14.39,47.27,1022.18,2060.04,3061.03,2813.74,3225.63,599.83,615.25,9.75,0000 0000 0000 0000 000000
2018-03-17 01:23:05,0.12,1.17,0.00,15.27,18.64,21.92,14.47,47.37,1022.18,2060.02,3058.63,2812.11,3223.68,600.18,615.60,9.80,0000 0000 0000 0000 000000
2018-03-17 01:28:06,0.13,1.17,0.00,15.28,18.66,21.95,14.34,47.39,1022.22,2060.01,3056.13,2810.40,3221.65,599.95,615.20,9.85,0000 0000 0000 0000 000000
2018-03-17 01:33:08,0.14,1.18,0.00,15.31,18.67,21.96,14.46,47.37,1022.39,2060.00,3053.32,2808.55,3219.51,599.92,615.38,9.90,0000 0000 0000 0000 000000
2018-03-17 01:38:08,0.15,1.19,0.00,15.32,18.68,21.97,14.40,47.33,1022.45,2060.00,3050.47,2806.63,3217.24,599.95,615.25,9.95,0000 0000 0000 0000 000000
2018-03-17 01:43:09,0.15,1.20,0.00,15.36,18.69,21.97,14.42,47.23,1022.48,2060.00,3047.54,2804.63,3214.94,600.14,615.50,10.00,0000 0000 0000 0000 000000
2018-03-17 01:48:11,0.14,1.20,0.00,15.38,18.69,21.98,14.41,47.27,1022.48,2059.99,3044.51,2802.71,3212.74,599.92,615.17,10.05,0000 0000 0000 0000 000000
2018-03-17 01:53:12,0.14,1.21,0.00,15.41,18.71,21.98,14.44,47.30,1022.48,2059.99,3041.56,2800.81,3210.56,600.16,615.46,10.10,0000 0000 0000 0000 000000
2018-03-17 01:58:14,0.14,1.22,0.00,15.43,18.72,22.03,14.35,47.29,1022.48,2059.99,3038.80,2798.98,3208.34,599.79,615.07,10.15,0000 0000 0000 0000 000000
2018-03-17 02:03:15,0.14,1.22,0.00,15.46,18.73,22.03,14.41,47.23,1022.48,2059.99,3035.97,2797.07,3206.10,600.00,615.14,10.20,0000 0000 0000 0000 000000
2018-03-17 02:08:16,0.13,1.23,0.00,15.49,18.75,22.05,14.47,47.18,1022.48,2059.98,3033.15,2795.26,3203.97,600.20,615.28,10.26,0000 0000 0000 0000 000000
2018-03-17 02:13:18,0.14,1.24,0.00,15.53,18.77,22.07,14.42,47.16,1022.48,2059.96,3030.26,2793.34,3201.76,600.12,615.17,10.31,0000 0000 0000 0000 000000
2018-03-17 02:18:19,0.14,1.25,0.00,15.54,18.79,22.09,14.36,47.08,1022.51,2059.94,3027.46,2791.54,3199.68,599.86,614.83,10.36,0000 0000 0000 0000 000000
2018-03-17 02:23:21,0.13,1.25,0.00,15.57,18.81,22.12,14.44,47.06,1022.56,2059.95,3024.80,2789.71,3197.67,600.15,615.09,10.41,0000 0000 0000 0000 000000
2018-03-17 02:28:22,0.14,1.26,0.00,15.61,18.83,22.12,14.32,47.19,1022.67,2059.93,3022.03,2787.90,3195.64,599.86,614.91,10.46,0000 0000 0000 0000 000000
2018-03-17 02:33:23,0.13,1.27,0.00,15.64,18.85,22.15,14.31,47.17,1022.76,2059.86,3019.34,2786.11,3193.51,599.85,614.76,10.51,0000 0000 0000 0000 000000
2018-03-17 02:38:24,0.08,1.27,0.00,15.67,18.88,22.17,14.31,47.17,1022.90,2059.37,3016.61,2784.23,3191.35,599.61,614.59,10.56,0000 0000 0000 0000 000000
2018-03-17 02:43:26,0.12,1.28,0.00,15.70,18.91,22.19,14.35,47.22,1022.92,2059.13,3014.02,2782.45,3189.27,599.70,614.59,10.61,0000 0000 0000 0000 000000
2018-03-17 02:48:27,0.14,1.28,0.00,15.73,18.94,22.20,14.37,47.21,1022.95,2059.05,3011.38,2780.61,3187.14,600.32,615.23,10.66,0000 0000 0000 0000 000000
2018-03-17 02:53:28,0.13,1.29,0.00,15.76,18.97,22.21,14.44,47.30,1022.96,2059.03,3008.81,2778.82,3185.07,599.78,614.56,10.71,0000 0000 0000 0000 000000
2018-03-17 02:58:30,0.14,1.30,0.00,15.79,19.00,22.25,14.41,47.35,1022.96,2059.00,3006.27,2777.01,3182.97,600.04,614.76,10.76,0000 0000 0000 0000 000000
2018-03-17 03:03:31,0.13,1.31,0.00,15.82,19.03,22.28,14.40,47.24,1022.97,2059.00,3003.68,2775.16,3180.81,600.30,614.94,10.81,0000 0000 0000 0000 000000
2018-03-17 03:08:32,0.13,1.31,0.00,15.87,19.07,22.29,14.46,47.23,1022.97,2058.99,3001.11,2773.34,3178.64,600.02,614.63,10.86,0000 0000 0000 0000 000000
2018-03-17 03:13:33,0.14,1.32,0.00,15.88,19.10,22.32,14.23,47.13,1022.97,2058.95,2998.51,2771.49,3176.42,599.93,614.46,10.91,0000 0000 0000 0000 000000
2018-03-17 03:18:35,0.09,1.33,0.00,15.93,19.13,22.36,14.35,47.26,1022.99,2058.57,2995.80,2769.61,3174.23,600.08,614.53,10.96,0000 0000 0000 0000 000000
2018-03-17 03:23:36,0.12,1.33,0.00,15.97,19.17,22.38,14.34,47.15,1022.99,2058.12,2993.13,2767.80,3172.09,599.91,614.33,11.01,0000 0000 0000 0000 000000
2018-03-17 03:28:37,0.13,1.34,0.00,15.99,19.20,22.40,14.39,47.05,1023.05,2058.01,2990.42,2765.92,3169.95,600.18,614.59,11.06,0000 0000 0000 0000 000000
2018-03-17 03:33:38,0.13,1.34,0.00,16.05,19.23,22.44,14.32,47.13,1023.27,2058.00,2987.78,2764.15,3167.86,600.00,614.32,11.11,0000 0000 0000 0000 000000
2018-03-17 03:38:40,0.13,1.35,0.00,16.08,19.26,22.47,14.29,47.10,1023.41,2058.00,2985.21,2762.34,3165.74,600.02,614.38,11.16,0000 0000 0000 0000 000000
2018-03-17 03:43:41,0.13,1.36,0.00,16.13,19.29,22.50,14.35,47.22,1023.44,2058.00,2982.66,2760.60,3163.70,599.86,614.10,11.21,0000 0000 0000 0000 000000
2018-03-17 03:48:42,0.13,1.36,0.00,16.16,19.33,22.52,14.34,47.15,1023.45,2057.96,2980.13,2758.80,3161.58,599.84,614.26,11.26,0000 0000 0000 0000 000000
2018-03-17 03:53:43,0.10,1.37,0.00,16.19,19.36,22.57,14.41,47.10,1023.45,2057.82,2977.72,2757.15,3159.65,600.21,614.39,11.31,0000 0000 0000 0000 000000
2018-03-17 03:58:45,0.07,1.37,0.00,16.23,19.40,22.58,14.38,47.14,1023.45,2057.26,2975.28,2755.46,3157.65,600.12,614.15,11.36,0000 0000 0000 0000 000000
2018-03-17 04:03:46,0.12,1.38,0.00,16.28,19.43,22.63,14.42,47.09,1023.45,2057.04,2972.91,2753.75,3155.72,600.36,614.35,11.41,0000 0000 0000 0000 000000
2018-03-17 04:08:47,0.11,1.39,0.00,16.33,19.46,22.65,14.37,47.11,1023.45,2057.02,2970.69,2752.29,3153.90,600.13,614.05,11.46,0000 0000 0000 0000 000000
2018-03-17 04:13:49,0.11,1.39,0.00,16.37,19.50,22.69,14.34,46.94,1023.46,2057.00,2968.43,2750.82,3152.08,599.70,613.39,11.51,0000 0000 0000 0000 000000
2018-03-17 04:18:49,0.11,1.40,0.00,16.41,19.54,22.74,14.28,47.02,1023.46,2057.00,2966.23,2749.42,3150.28,599.79,613.50,11.56,0000 0000 0000 0000 000000
2018-03-17 04:23:51,0.12,1.40,0.00,16.44,19.58,22.77,14.40,47.15,1023.47,2056.97,2964.01,2747.81,3148.49,600.10,613.75,11.61,0000 0000 0000 0000 000000
2018-03-17 04:28:52,0.11,1.41,0.00,16.47,19.61,22.82,14.22,47.01,1023.50,2056.97,2961.86,2746.37,3146.72,599.53,613.10,11.66,0000 0000 0000 0000 000000
2018-03-17 04:33:53,0.08,1.41,0.00,16.51,19.64,22.83,14.37,47.13,1023.53,2056.65,2959.55,2744.74,3144.94,600.23,613.61,11.71,0000 0000 0000 0000 000000
2018-03-17 04:38:54,0.08,1.42,0.00,16.54,19.68,22.87,14.34,47.02,1023.53,2056.13,2957.25,2743.18,3142.98,599.91,613.33,11.76,0000 0000 0000 0000 000000
2018-03-17 04:43:56,0.11,1.42,0.00,16.58,19.72,22.91,14.37,47.01,1023.53,2056.02,2955.08,2741.61,3141.13,600.13,613.53,11.81,0000 0000 0000 0000 000000
2018-03-17 04:48:57,0.11,1.43,0.00,16.61,19.75,22.96,14.37,47.05,1023.57,2056.00,2952.88,2740.07,3139.38,600.10,613.54,11.86,0000 0000 0000 0000 000000
2018-03-17 04:53:58,0.12,1.44,0.00,16.64,19.79,22.98,14.44,47.13,1023.71,2056.00,2950.69,2738.51,3137.49,600.25,613.63,11.91,0000 0000 0000 0000 000000
2018-03-17 04:59:00,0.13,1.44,0.00,16.67,19.83,23.03,14.38,47.08,1023.84,2055.96,2948.32,2736.71,3135.49,600.05,613.45,11.96,0000 0000 0000 0000 000000
2018-03-17 05:04:01,0.08,1.45,0.00,16.70,19.86,23.06,14.42,47.02,1023.91,2055.77,2946.08,2735.18,3133.74,600.12,613.52,12.01,0000 0000 0000 0000 000000
2018-03-17 05:09:02,0.07,1.45,0.00,16.74,19.90,23.09,14.29,47.02,1023.94,2055.21,2943.95,2733.61,3131.95,599.85,613.19,12.06,0000 0000 0000 0000 000000
2018-03-17 05:14:03,0.11,1.46,0.00,16.77,19.93,23.12,14.43,47.23,1023.94,2055.02,2941.80,2732.01,3130.10,600.10,613.26,12.11,0000 0000 0000 0000 000000
2018-03-17 05:19:04,0.11,1.46,0.00,16.80,19.98,23.17,14.43,47.15,1023.94,2055.01,2939.60,2730.55,3128.36,600.14,613.30,12.16,0000 0000 0000 0000 000000
2018-03-17 05:24:06,0.12,1.47,0.00,16.83,20.01,23.19,14.34,47.03,1023.95,2055.00,2937.42,2729.01,3126.56,600.02,613.11,12.21,0000 0000 0000 0000 000000
2018-03-17 05:29:07,0.12,1.47,0.00,16.87,20.05,23.23,14.37,47.04,1023.94,2054.98,2935.27,2727.50,3124.73,600.08,613.18,12.26,0000 0000 0000 0000 000000
2018-03-17 05:34:08,0.13,1.48,0.00,16.89,20.08,23.25,14.36,47.02,1023.95,2054.96,2932.87,2725.82,3122.81,600.11,613.04,12.31,0000 0000 0000 0000 000000
2018-03-17 05:39:10,0.11,1.49,0.00,16.93,20.11,23.31,14.33,47.01,1024.03,2054.76,2930.31,2724.04,3120.73,599.93,612.88,12.36,0000 0000 0000 0000 000000
2018-03-17 05:44:11,0.09,1.49,0.00,16.95,20.15,23.33,14.41,47.07,1024.28,2054.29,2927.75,2722.22,3118.62,600.11,613.16,12.41,0000 0000 0000 0000 000000
2018-03-17 05:49:12,0.13,1.50,0.00,16.98,20.18,23.37,14.37,47.08,1024.36,2054.05,2925.09,2720.38,3116.50,600.08,613.02,12.46,0000 0000 0000 0000 000000
2018-03-17 05:54:14,0.14,1.51,0.00,17.02,20.20,23.40,14.32,47.05,1024.42,2054.01,2922.45,2718.54,3114.35,599.61,612.64,12.52,0000 0000 0000 0000 000000
2018-03-17 05:59:15,0.14,1.51,0.00,17.04,20.23,23.43,14.28,47.06,1024.43,2054.00,2919.96,2716.77,3112.29,600.14,613.09,12.57,0000 0000 0000 0000 000000
2018-03-17 06:04:16,0.14,1.52,0.00,17.07,20.27,23.46,14.34,46.96,1024.43,2054.00,2917.46,2715.02,3110.32,600.19,613.07,12.62,0000 0000 0000 0000 000000
2018-03-17 06:09:18,0.14,1.53,0.00,17.10,20.30,23.50,14.29,46.92,1024.43,2053.97,2914.95,2713.26,3108.23,599.93,612.76,12.67,0000 0000 0000 0000 000000
2018-03-17 06:14:19,0.12,1.53,0.00,17.13,20.33,23.53,14.33,46.95,1024.43,2053.85,2912.32,2711.42,3106.05,599.95,612.75,12.72,0000 0000 0000 0000 000000
2018-03-17 06:19:20,0.10,1.54,0.00,17.16,20.36,23.55,14.36,46.98,1024.47,2053.42,2909.69,2709.60,3103.89,600.02,612.75,12.77,0000 0000 0000 0000 000000
2018-03-17 06:24:22,0.11,1.55,0.00,17.19,20.39,23.60,14.34,47.00,1024.58,2053.11,2907.20,2707.81,3101.85,600.07,612.99,12.82,0000 0000 0000 0000 000000
2018-03-17 06:29:23,0.15,1.55,0.00,17.22,20.42,23.63,14.30,46.88,1024.71,2053.01,2904.47,2705.91,3099.56,600.12,612.90,12.87,0000 0000 0000 0000 000000
2018-03-17 06:34:24,0.17,1.56,0.00,17.25,20.45,23.66,14.34,47.01,1024.88,2053.00,2901.55,2703.89,3097.18,599.86,612.53,12.92,0000 0000 0000 0000 000000
2018-03-17 06:39:26,0.16,1.57,0.00,17.28,20.48,23.68,14.24,46.91,1024.91,2053.00,2898.49,2701.76,3094.71,599.74,612.48,12.97,0000 0000 0000 0000 000000
2018-03-17 06:44:27,0.16,1.58,0.00,17.32,20.51,23.72,14.39,46.99,1024.92,2052.99,2895.57,2699.76,3092.37,600.10,612.72,13.02,0000 0000 0000 0000 000000
2018-03-17 06:49:28,0.15,1.59,0.00,17.33,20.53,23.74,14.26,46.88,1024.92,2052.97,2892.65,2697.75,3090.07,599.97,612.57,13.07,0000 0000 0000 0000 000000
2018-03-17 06:54:29,0.15,1.59,0.00,17.36,20.56,23.78,14.31,46.85,1024.92,2052.96,2889.79,2695.80,3087.75,599.95,612.52,13.12,0000 0000 0000 0000 000000
2018-03-17 06:59:31,0.11,1.60,0.00,17.39,20.59,23.81,14.41,46.91,1024.92,2052.67,2886.90,2693.76,3085.37,600.14,612.64,13.17,0000 0000 0000 0000 000000
2018-03-17 07:04:32,0.14,1.61,0.00,17.43,20.61,23.83,14.34,46.91,1024.93,2052.33,2883.93,2691.71,3083.02,600.06,612.65,13.22,0000 0000 0000 0000 000000
2018-03-17 07:09:33,0.15,1.61,0.00,17.45,20.64,23.87,14.30,46.84,1024.98,2052.04,2880.97,2689.61,3080.57,600.18,612.48,13.27,0000 0000 0000 0000 000000
2018-03-17 07:14:34,0.17,1.62,0.00,17.48,20.66,23.90,14.10,46.83,1025.07,2052.02,2878.00,2687.49,3078.10,599.51,611.95,13.32,0000 0000 0000 0000 000000
2018-03-17 07:19:36,0.16,1.63,0.00,17.52,20.69,23.93,14.36,46.78,1025.20,2052.00,2875.08,2685.52,3075.74,600.24,612.68,13.37,0000 0000 0000 0000 000000
2018-03-17 07:24:37,0.16,1.64,0.00,17.56,20.72,23.96,14.35,46.83,1025.35,2051.99,2872.10,2683.51,3073.35,600.33,612.58,13.42,0000 0000 0000 0000 000000
2018-03-17 07:29:38,0.16,1.65,0.00,17.58,20.74,23.99,14.34,46.86,1025.40,2051.98,2869.15,2681.44,3071.08,600.11,612.60,13.47,0000 0000 0000 0000 000000
2018-03-17 07:34:39,0.15,1.65,0.00,17.61,20.77,24.00,14.27,46.77,1025.40,2051.96,2866.41,2679.54,3068.89,599.83,612.16,13.52,0000 0000 0000 0000 000000
2018-03-17 07:39:40,0.14,1.66,0.00,17.64,20.80,24.02,14.33,46.72,1025.41,2051.91,2863.74,2677.66,3066.65,600.07,612.35,13.57,0000 0000 0000 0000 000000
2018-03-17 07:44:41,0.14,1.67,0.00,17.66,20.83,24.06,14.33,46.75,1025.41,2051.79,2861.08,2675.82,3064.50,600.10,612.32,13.62,0000 0000 0000 0000 000000
2018-03-17 07:49:42,0.09,1.68,0.00,17.69,20.85,24.08,14.40,46.89,1025.44,2051.34,2858.45,2674.01,3062.39,600.33,612.40,13.67,0000 0000 0000 0000 000000
2018-03-17 07:54:44,0.13,1.68,0.00,17.73,20.88,24.11,14.28,46.82,1025.54,2051.10,2855.93,2672.32,3060.40,599.70,611.94,13.72,0000 0000 0000 0000 000000
2018-03-17 07:59:45,0.14,1.69,0.00,17.76,20.90,24.14,14.36,46.87,1025.78,2051.01,2853.31,2670.54,3058.30,599.88,612.11,13.77,0000 0000 0000 0000 000000
2018-03-17 08:04:46,0.17,1.70,0.00,17.79,20.92,24.17,14.29,46.71,1025.88,2051.00,2850.49,2668.57,3056.02,599.86,612.20,13.82,0000 0000 0000 0000 000000
2018-03-17 08:09:47,0.31,1.71,0.00,17.81,20.94,24.19,14.31,46.69,1025.89,2051.00,2845.29,2665.35,3052.35,600.08,612.26,13.87,0000 0000 0000 0000 000000
2018-03-17 08:14:49,0.25,1.72,0.00,17.83,20.97,24.23,14.32,46.67,1025.92,2050.99,2840.22,2662.10,3048.68,600.11,612.31,13.92,0000 0000 0000 0000 000000
2018-03-17 08:19:50,0.30,1.74,0.00,17.86,20.99,24.24,14.31,46.63,1026.11,2050.96,2835.21,2658.93,3045.10,600.03,612.25,13.97,0000 0000 0000 0000 000000
2018-03-17 08:24:51,0.49,1.76,0.00,17.91,21.01,24.26,14.31,46.61,1026.30,2050.96,2826.30,2653.46,3038.93,600.10,612.34,14.02,0000 0000 0000 0000 000000
2018-03-17 08:29:52,0.13,1.77,0.00,17.95,21.03,24.27,14.41,46.63,1026.37,2050.87,2822.32,2650.90,3035.98,600.26,612.42,14.07,0000 0000 0000 0000 000000
2018-03-17 08:34:54,0.09,1.78,0.00,18.00,21.04,24.31,14.33,46.68,1026.38,2050.51,2819.89,2649.41,3034.24,599.99,612.06,14.12,0000 0000 0000 0000 000000
2018-03-17 08:39:55,0.14,1.78,0.00,18.04,21.07,24.34,14.26,46.71,1026.38,2050.34,2817.06,2647.62,3032.20,599.89,611.91,14.17,0000 0000 0000 0000 000000
2018-03-17 08:44:57,0.17,1.79,0.00,18.08,21.08,24.36,14.31,46.56,1026.38,2050.14,2813.81,2645.49,3029.71,599.97,611.92,14.22,0000 0000 0000 0000 000000
2018-03-17 08:49:58,0.19,1.80,0.00,18.07,21.10,24.38,14.31,46.47,1026.39,2050.02,2810.17,2643.14,3027.00,599.94,611.90,14.27,0000 0000 0000 0000 000000
2018-03-17 08:55:00,0.20,1.81,0.00,18.03,21.12,24.43,14.29,46.48,1026.45,2050.01,2806.35,2640.73,3024.32,600.03,612.09,14.32,0000 0000 0000 0000 000000
2018-03-17 09:00:01,0.21,1.82,0.00,18.00,21.13,24.44,14.29,46.53,1026.70,2050.00,2802.65,2638.37,3021.56,599.86,612.14,14.37,0000 0000 0000 0000 000000
2018-03-17 09:05:02,0.21,1.83,0.00,17.98,21.14,24.47,14.32,46.54,1026.86,2050.00,2798.68,2635.87,3018.68,599.84,612.36,14.42,0000 0000 0000 0000 000000
2018-03-17 09:10:04,0.22,1.84,0.00,17.95,21.15,24.47,14.36,46.57,1026.87,2050.00,2794.71,2633.36,3015.79,599.98,612.38,14.47,0000 0000 0000 0000 000000
2018-03-17 09:15:05,0.26,1.86,0.00,17.94,21.17,24.51,14.32,46.62,1026.88,2050.00,2790.03,2630.44,3012.47,599.76,612.27,14.52,0000 0000 0000 0000 000000
2018-03-17 09:20:07,0.26,1.87,0.00,17.92,21.17,24.51,14.29,46.54,1026.87,2049.99,2785.23,2627.43,3009.07,600.01,612.57,14.57,0000 0000 0000 0000 000000
2018-03-17 09:25:08,0.23,1.88,0.00,17.90,21.17,24.54,14.25,46.42,1026.87,2049.99,2780.73,2624.63,3006.02,599.84,612.54,14.62,0000 0000 0000 0000 000000
2018-03-17 09:30:09,0.18,1.89,0.00,17.89,21.19,24.54,14.27,46.57,1026.90,2049.98,2777.10,2622.45,3003.36,599.84,612.40,14.67,0000 0000 0000 0000 000000
2018-03-17 09:35:10,0.16,1.90,0.00,17.88,21.19,24.55,14.34,46.52,1026.94,2049.97,2773.96,2620.52,3001.05,600.14,612.84,14.72,0000 0000 0000 0000 000000
2018-03-17 09:40:12,0.16,1.91,0.00,17.85,21.19,24.58,14.29,46.54,1027.05,2049.93,2770.92,2618.62,2998.85,599.90,612.77,14.77,0000 0000 0000 0000 000000
2018-03-17 09:45:13,0.10,1.92,0.00,17.82,21.19,24.57,14.22,46.51,1027.25,2049.92,2768.89,2617.29,2997.30,599.69,612.64,14.83,0000 0000 0000 0000 000000
2018-03-17 09:50:14,0.06,1.92,0.00,17.82,21.19,24.60,14.30,46.52,1027.36,2049.77,2767.12,2616.23,2996.05,599.78,612.83,14.88,0000 0000 0000 0000 000000
2018-03-17 09:55:15,0.09,1.92,0.00,17.81,21.19,24.60,14.35,46.58,1027.36,2049.64,2765.53,2615.19,2994.70,599.96,613.03,14.93,0000 0000 0000 0000 000000
2018-03-17 10:00:16,0.08,1.93,0.00,17.79,21.19,24.64,14.41,46.52,1027.36,2049.60,2763.88,2614.13,2993.50,600.01,613.11,14.98,0000 0000 0000 0000 000000
2018-03-17 10:05:18,0.07,1.93,0.00,17.79,21.19,24.56,14.31,46.64,1027.37,2049.59,2762.64,2613.37,2992.67,599.91,613.04,15.03,0000 0000 0000 0000 000000
2018-03-17 10:10:19,0.07,1.94,0.00,17.78,21.18,24.63,14.40,46.51,1027.37,2049.74,2761.41,2612.71,2991.76,600.33,613.49,15.08,0000 0000 0000 0000 000000
2018-03-17 10:15:21,0.08,1.94,0.00,17.76,21.17,24.59,14.29,46.46,1027.38,2049.58,2759.68,2611.53,2990.45,599.97,613.16,15.13,0000 0000 0000 0000 000000
2018-03-17 10:20:22,0.15,1.95,0.00,17.75,21.17,24.65,14.34,46.54,1027.41,2049.76,2757.54,2610.32,2988.90,599.66,613.02,15.18,0000 0000 0000 0000 000000
2018-03-17 10:25:23,0.11,1.95,0.00,17.73,21.17,24.58,14.35,46.53,1027.51,2049.69,2755.19,2608.84,2987.24,599.88,613.28,15.23,0000 0000 0000 0000 000000
2018-03-17 10:30:24,0.15,1.96,0.00,17.72,21.17,24.62,14.32,46.59,1027.64,2049.81,2752.75,2607.41,2985.50,599.51,613.02,15.28,0000 0000 0000 0000 000000
2018-03-17 10:35:26,0.14,1.97,0.00,17.70,21.15,24.61,14.32,46.58,1027.65,2049.68,2750.23,2605.72,2983.67,599.90,613.37,15.33,0000 0000 0000 0000 000000
2018-03-17 10:40:27,0.15,1.98,0.00,17.68,21.14,24.60,14.38,46.53,1027.68,2049.78,2747.54,2604.05,2981.70,600.25,613.80,15.38,0000 0000 0000 0000 000000
2018-03-17 10:45:28,0.15,1.98,0.00,17.67,21.14,24.57,14.34,46.66,1027.79,2049.82,2744.93,2602.44,2979.86,600.06,613.68,15.43,0000 0000 0000 0000 000000
2018-03-17 10:50:29,0.13,1.99,0.00,17.64,21.13,24.52,14.36,46.59,1027.85,2049.80,2742.35,2600.84,2978.04,599.83,613.54,15.48,0000 0000 0000 0000 000000
2018-03-17 10:55:31,0.12,2.00,0.00,17.62,21.12,24.50,14.27,46.56,1027.85,2049.89,2740.16,2599.52,2976.47,599.63,613.38,15.53,0000 0000 0000 0000 000000
2018-03-17 11:00:32,0.10,2.00,0.00,17.61,21.12,24.48,14.41,46.63,1027.85,2049.92,2738.20,2598.35,2974.98,600.09,613.86,15.58,0000 0000 0000 0000 000000
2018-03-17 11:05:33,0.11,2.01,0.00,17.59,21.09,24.49,14.36,46.63,1027.85,2049.92,2736.18,2597.04,2973.49,600.26,614.07,15.63,0000 0000 0000 0000 000000
2018-03-17 11:10:34,0.11,2.01,0.00,17.57,21.09,24.50,14.36,46.65,1027.85,2049.92,2734.19,2595.82,2972.03,599.82,613.76,15.68,0000 0000 0000 0000 000000
2018-03-17 11:15:35,0.08,2.02,0.00,17.55,21.07,24.46,14.36,46.64,1027.86,2049.95,2732.53,2594.86,2970.84,599.71,613.68,15.73,0000 0000 0000 0000 000000
2018-03-17 11:20:37,0.09,2.02,0.00,17.52,21.07,24.46,14.41,46.62,1027.87,2049.95,2730.90,2593.87,2969.69,600.18,614.21,15.78,0000 0000 0000 0000 000000
2018-03-17 11:25:38,0.09,2.03,0.00,17.50,21.04,24.41,14.31,46.50,1027.92,2049.97,2729.22,2592.87,2968.51,599.95,614.11,15.83,0000 0000 0000 0000 000000
2018-03-17 11:30:39,0.08,2.03,0.00,17.49,21.03,24.41,14.38,46.51,1027.93,2049.99,2727.68,2591.93,2967.50,600.30,614.39,15.88,0000 0000 0000 0000 000000
2018-03-17 11:35:41,0.09,2.04,0.00,17.47,21.02,24.38,14.39,46.64,1027.89,2049.99,2726.03,2590.93,2966.25,600.10,614.33,15.93,0000 0000 0000 0000 000000
2018-03-17 11:40:42,0.08,2.04,0.00,17.45,21.00,24.31,14.41,46.52,1027.86,2049.99,2724.42,2589.95,2965.00,600.10,614.22,15.98,0000 0000 0000 0000 000000
2018-03-17 11:45:43,0.07,2.05,0.00,17.41,20.98,24.34,14.38,46.57,1027.85,2049.99,2722.97,2589.07,2964.04,600.27,614.46,16.03,0000 0000 0000 0000 000000
2018-03-17 11:50:44,0.08,2.05,0.00,17.39,20.97,24.24,14.38,46.63,1027.86,2049.99,2721.72,2588.32,2963.14,599.95,614.21,16.08,0000 0000 0000 0000 000000
2018-03-17 11:55:45,0.05,2.05,0.00,17.36,20.94,24.28,14.27,46.44,1027.85,2049.99,2720.51,2587.77,2962.27,599.75,614.09,16.13,0000 0000 0000 0000 000000
2018-03-17 12:00:47,0.04,2.06,0.00,17.33,20.92,24.24,14.47,46.61,1027.85,2049.99,2719.67,2587.06,2961.75,600.36,614.66,16.18,0000 0000 0000 0000 000000
2018-03-17 12:05:48,0.04,2.06,0.00,17.31,20.90,24.19,14.40,46.58,1027.86,2050.02,2718.72,2586.84,2961.03,600.00,614.40,16.23,0000 0000 0000 0000 000000
2018-03-17 12:10:50,0.06,2.06,0.00,17.28,20.88,24.19,14.39,46.58,1027.87,2050.03,2717.66,2586.06,2960.41,599.95,614.45,16.28,0000 0000 0000 0000 000000
2018-03-17 12:15:51,0.05,2.06,0.00,17.25,20.86,24.14,14.35,46.63,1027.87,2050.05,2716.72,2585.60,2959.88,599.96,614.61,16.33,0000 0000 0000 0000 000000
2018-03-17 12:20:52,0.07,2.07,0.00,17.22,20.84,24.09,14.38,46.60,1027.92,2050.25,2715.86,2585.02,2959.08,599.90,614.45,16.38,0000 0000 0000 0000 000000
2018-03-17 12:25:53,0.07,2.07,0.00,17.19,20.82,24.13,14.45,46.67,1028.01,2050.63,2715.02,2584.84,2958.71,599.82,614.52,16.43,0000 0000 0000 0000 000000
2018-03-17 12:30:54,0.07,2.08,0.00,17.18,20.79,24.08,14.39,46.58,1028.22,2050.89,2714.17,2584.08,2958.02,599.76,614.72,16.48,0000 0000 0000 0000 000000
2018-03-17 12:35:56,0.04,2.08,0.00,17.13,20.77,24.06,14.38,46.73,1028.32,2050.94,2713.37,2583.96,2957.59,599.93,615.09,16.53,0000 0000 0000 0000 000000
2018-03-17 12:40:57,0.05,2.08,0.00,17.10,20.75,24.02,14.36,46.66,1028.33,2050.97,2712.56,2583.21,2956.93,599.80,614.90,16.58,0000 0000 0000 0000 000000
2018-03-17 12:45:58,0.04,2.08,0.00,17.08,20.73,24.03,14.37,46.73,1028.33,2050.99,2711.71,2582.90,2956.10,600.11,615.26,16.63,0000 0000 0000 0000 000000
2018-03-17 12:51:00,0.05,2.08,0.00,17.04,20.70,23.94,14.45,46.71,1028.33,2050.99,2710.82,2582.14,2955.70,599.80,615.08,16.68,0000 0000 0000 0000 000000
2018-03-17 12:56:01,0.02,2.09,0.00,17.01,20.68,23.96,14.42,46.72,1028.33,2050.99,2710.04,2581.98,2955.02,599.96,615.27,16.73,0000 0000 0000 0000 000000